Location: Orangeville
(43.9200°N, 80.0943°W)
Time: 08:33:49
(UTC-05:00)

ISS - Pass Details

Date: 01 December 2021
Orbit: 413 x 422 km, 51.6° (Epoch: 24 January)

Event Time Altitude Azimuth Distance (km) Brightness Sun altitude
Rises 17:12:10 0° 292° (WNW) 2,383 0.8 -5.4°
Reaches altitude 10° 17:14:37 10° 309° (NW) 1,516 -0.6 -5.8°
Maximum altitude 17:17:19 21° 1° (N) 999 -2.1 -6.2°
Drops below altitude 10° 17:20:01 10° 54° (NE) 1,511 -1.6 -6.6°
Enters shadow 17:20:22 - 58° (ENE) 1,624 -1.4 -6.7°
